#timestamp,LO_Frequency,Hit,StdDev 
1607752815.7,286046996.6,N
1607752835.5,286046996.7,N
1607752855.4,286046997.7,N
1607752875.2,286046997.9,N
1607752895.1,286046995.0,N
1607752896.0,286046995.0,N
1607752915.8,286046997.6,N
1607752935.6,286046996.5,N
1607752955.5,286046999.4,N
1607752975.3,286046997.8,N
1607752995.1,286046997.6,N
1607753015.9,286046994.9,N
1607753035.7,286046997.7,N
1607753055.6,286046993.9,Y
1607753075.4,286046997.7,P
1607753095.2,286047001.0,P
1607753115.1,286046998.6,N
1607753116.0,286046998.6,N
1607753135.8,286046998.4,N
1607753155.7,286046997.1,N
1607753175.5,286046999.1,N
1607753195.3,286046999.3,N
1607753215.2,286046997.2,N
1607753235.0,286046995.0,Y
1607753235.9,286046995.0,P
1607753255.7,286046996.5,N
1607753275.6,286046999.6,N
1607753295.4,286046998.8,N
1607753315.3,286046999.3,N
1607753335.1,286046997.0,N
1607753355.8,286046997.3,N
1607753375.7,286046996.7,N
1607753395.5,286046999.6,N
1607753415.4,286046995.3,Y
1607753435.2,286047000.7,P
1607753455.0,286047000.9,N
1607753455.9,286047000.9,N
1607753475.8,286046998.5,N
1607753495.6,286046999.3,N
1607753515.5,286046995.2,Y
1607753535.3,286046997.1,P
1607753555.1,286046999.3,N
1607753575.9,286046997.4,N
1607753595.7,286046999.6,N
1607753615.5,286046997.1,N
1607753635.4,286047000.3,N
1607753655.2,286046998.3,N
1607753675.1,286047001.1,N
1607753676.0,286047001.1,N
1607753695.8,286047002.8,N
1607753715.6,286046998.4,N
1607753735.5,286046998.7,N
1607753755.3,286046999.3,N
1607753775.1,286046998.3,N
1607753795.9,286046997.8,N
1607753815.7,286046998.8,N
1607753835.6,286046999.6,N
1607753855.4,286046994.9,Y
1607753875.2,286046995.6,P
1607753895.1,286046993.5,P
1607753896.0,286046993.5,N
1607753915.8,286046993.9,N
1607753935.7,286046991.8,Y
1607753955.5,286047002.8,P
1607753975.3,286047001.2,N
1607753995.2,286046998.5,N
1607754015.9,286046998.8,N
1607754035.7,286046998.3,N
1607754055.6,286046998.5,N
1607754075.4,286046996.8,N
1607754095.3,286046999.5,N
1607754115.1,286046998.6,N
1607754116.0,286046998.6,N
1607754135.8,286046998.1,N
1607754155.7,286047002.8,N
1607754175.5,286047001.1,N
1607754195.3,286046998.9,N
1607754215.2,286046998.5,N
1607754235.0,286046999.2,N
1607754235.9,286046999.2,N
1607754255.8,286047000.8,N
1607754275.6,286046997.6,N
1607754295.4,286046997.9,N
1607754315.3,286046996.9,N
1607754335.1,286046996.0,N
1607754355.8,286046994.1,Y
1607754375.7,286046993.5,P
1607754395.5,286046995.2,N
1607754415.4,286046993.4,N
1607754435.2,286046997.7,N
1607754455.0,286046999.0,N
1607754455.9,286046999.0,N
1607754475.8,286046995.3,N
1607754495.6,286046995.4,N
1607754515.4,286046996.0,N
1607754535.3,286046995.4,N
1607754555.1,286046994.2,N
1607754575.9,286046996.3,N
1607754595.7,286046996.9,N
1607754615.5,286046999.6,N
1607754635.4,286046993.8,Y
1607754655.2,286046999.2,P
1607754675.0,286046995.6,P
1607754675.9,286046995.6,N
1607754695.8,286046995.2,Y
1607754715.6,286047004.3,P
1607754735.5,286047004.4,N
1607754755.3,286047001.5,N
1607754775.1,286047000.5,N
1607754795.9,286047002.8,N
1607754815.7,286047001.1,N
1607754835.5,286046999.7,N
1607754855.4,286047003.4,N
1607754875.2,286047003.7,N
1607754895.1,286047003.6,N
1607754896.0,286047003.6,N
1607754915.8,286047004.2,N
1607754935.6,286047002.1,N
1607754955.5,286047004.1,N
1607754975.3,286047001.9,N
1607754995.2,286046999.8,N
1607755015.9,286047004.2,N
1607755035.7,286047001.3,N
1607755055.6,286047002.3,N
1607755075.4,286047001.9,N
1607755095.2,286047002.3,N
1607755115.1,286047000.9,N
1607755116.0,286047000.9,N
1607755135.8,286046999.9,N
1607755155.7,286046999.8,N
1607755175.5,286047000.9,N
1607755195.3,286047000.5,N
1607755215.2,286047000.2,N
1607755235.9,286046998.9,N
1607755255.7,286047001.1,N
1607755275.6,286047000.7,N
1607755295.4,286046999.4,N
1607755315.2,286046996.5,N
1607755335.1,286046999.3,N
1607755336.0,286046999.3,N
1607755355.8,286046998.8,N
1607755375.7,286046998.3,N
1607755395.5,286046999.4,N
1607755415.3,286046999.9,N
1607755435.2,286047001.3,N
1607755455.0,286047002.8,N
1607755455.9,286047002.8,N
1607755475.8,286046998.3,N
1607755495.6,286047000.5,N
1607755515.4,286046998.7,N
1607755535.3,286046996.6,N
1607755555.1,286046998.9,N
1607755575.8,286046998.1,N
1607755595.7,286046998.4,N
1607755615.5,286046999.4,N
1607755635.4,286046997.4,N
1607755655.2,286046999.6,N
1607755675.0,286046997.3,N
1607755675.9,286046997.3,N
1607755695.8,286046997.8,N
1607755715.6,286046997.6,N
1607755735.4,286046997.0,N
1607755755.3,286046999.1,N
1607755775.1,286046997.2,N
1607755795.9,286046997.4,N
1607755815.7,286046997.2,N
1607755835.5,286046997.5,N
1607755855.4,286046995.8,N
1607755875.2,286046996.2,N
1607755895.0,286046996.9,N
1607755895.9,286046996.9,N
1607755915.8,286046995.2,N
1607755935.6,286046997.1,N
1607755955.5,286046997.0,N
1607755975.3,286046997.0,N
1607755995.1,286046996.9,N
1607756015.9,286046997.1,N
1607756035.7,286046995.3,Y
1607756055.5,286046997.4,P
1607756075.4,286046997.5,P
1607756095.2,286047001.2,P
1607756115.1,286047000.0,N
1607756116.0,286047000.0,N
1607756135.8,286047002.3,N
1607756155.6,286047000.3,N
1607756175.5,286046999.9,N
1607756195.3,286046999.2,N
1607756215.1,286046997.2,N
1607756235.9,286046999.5,N
1607756255.7,286046997.0,N
1607756275.6,286046997.2,N
1607756295.4,286046997.7,N
1607756315.2,286046996.2,N
1607756335.1,286046996.1,N
1607756336.0,286046996.1,N
1607756355.8,286046995.2,N
1607756375.6,286046995.2,N
1607756395.5,286046997.0,N
